Weather in Berezovka

Russia / Kemerovo Oblast     55°06′50″N   86°30′29″E
temp.,
°C
wind,
m/s
gust,
m/s
humid.,
%
clouds,
%
prec.,
mm/h
press.,
hPa
HPBL,
m
28 november, sun
sun2801:00−7ssw81693100 3.9 10301018
04:00−6sw81689100 0.5 1028969
07:00−6sw71494100 2.0 10281013
10:00−6wsw71393100 1.1 1030815
13:00−6sw61291100 1.4 1032716
16:00−6sw51191100 0.2 1033611
19:00−7ssw51293100 0.3 1035453
22:00−8ssw51092100 0.1 1036369
29 november, mon
mon2901:00−9ssw4993100 0.2 1038250
04:00−9ssw4894100 0.1 1038263
07:00−10s4994100 0.3 1038283
10:00−10s4993100 0.1 1038272
13:00−8s4890100 0.1 1036316
16:00−8s4890100 0.0 1035241
19:00−10s3892100 0.0 1035119
22:00−11s3790100 0.0 1034126
30 november, tue
tue3001:00−12s3787100 0.0 1033102
04:00−12s3688100 0.0 103284
07:00−13sse3588100 0.0 103161
10:00−13s378786 0.0 103196
13:00−8s410835 0.0 1030265
16:00−9sse378744 0.0 1030105
19:00−11s388854 0.0 103096
22:00−13sse36857 0.0 103068
1 december, wed
wed101:00−14sse35865 0.0 103060
04:00−15sse348915 0.0 103043
07:00−17sse22925 0.0 103124
10:00−15sse34915 0.0 103151
13:00−8sse4108425 0.0 1030239
16:00−8sse3108664 0.0 1029144
19:00−10sse388893 0.0 1029102
22:00−10s398448 0.0 1028118
2 december, thu
thu201:00−14sse229190 0.0 102818
04:00−14ese2288100 0.0 102810
07:00−11sse3683100 0.0 102775
10:00−11sse3786100 0.0 102785
13:00−7sse41084100 0.0 1025189
16:00−7se2587100 0.0 102475
19:00−7sse388698 0.0 1023108
22:00−7sse398295 0.0 1022131